Simultaneous Nadir Overpasses (SNOs) Predictions

Prediction of SNOs between AURA and NPP Satellite Orbit:

Table of predicted SNOs for the next 14.0 days since TLE Epoch: 9/21/2024
Index Date (AURA) Time (AURA) Lat,Lon (AURA) SZA (AURA ) Date (NPP) Time (NPP) Lat,Lon (NPP) SZA (NPP ) Distance(km) Time Diff (sec)
1 09/21/2024 09:04:30 -80.84, 136.24 91.10 09/21/2024 09:04:11 -80.84, 136.35 91.11 2.04 19
2 09/21/2024 09:53:50 80.90, -55.33 88.80 09/21/2024 09:54:52 80.90, -55.16 88.73 2.93 62
3 09/23/2024 21:58:08 -80.83, -57.22 90.16 09/23/2024 21:58:02 -80.83, -57.35 90.13 2.38 6
4 09/23/2024 22:46:44 81.69, 128.20 87.44 09/23/2024 22:47:57 81.32, 128.67 87.20 41.46 73
5 09/26/2024 10:02:44 80.14, -65.63 91.97 09/26/2024 10:01:31 80.27, -66.32 92.13 19.18 73
6 09/26/2024 10:51:44 -80.83, 109.37 89.21 09/26/2024 10:51:52 -80.83, 109.22 89.20 2.68 8
7 09/28/2024 22:55:55 80.80, 108.02 91.76 09/28/2024 22:54:56 80.81, 108.17 91.78 2.79 59
8 09/28/2024 23:45:16 -80.85, -83.67 88.33 09/28/2024 23:45:39 -80.86, -83.61 88.35 1.26 23
9 10/01/2024 11:49:27 80.80, -85.35 92.70 10/01/2024 11:48:46 80.80, -85.46 92.75 1.93 41
10 10/01/2024 12:38:47 -80.88, 83.33 87.45 10/01/2024 12:39:27 -80.89, 83.48 87.49 2.62 40
11 10/04/2024 00:42:56 80.83, 81.65 93.58 10/04/2024 00:42:34 80.83, 81.52 93.61 2.40 22



Historial Predications of SNOs between AURA and NPP
